2025-138F

Last updated on Tue Jul 01 2025 00:02:08 GMT+0000 (Coordinated Universal Time)

1 64626U 25138F 25181.60997256 .03297959 24869-5 12609-2 0 9992 2 64626 97.4237 186.5515 0179629 21.1293 339.7765 15.96552279 608
UTC large
Height (km)
Speed (km/s)
/
Latitude / Longitude
Inclination (degrees)
Orbital Period (minutes)
Azimuth
Elevation
Range (km)
Doppler Factor

Next 0 passes for location: London (51.5072 / 0.1276)

Sorry there are no passes over London.